Retour au catalogue

METEOR 2-17 DEB

ActifPO
NORAD 35367·DEBRIS·🇷🇺 Russia

Lancé Jan 30, 1988 depuis Plesetsk Cosmodrome

Loading…

Prochains Passages (prochaines 24 heures)

TLE

FraisSource: Space-Track

Époque: Sep 14, 2026, 13:12 UTC

1 35367U 88005AB  26257.55054720  .00001461  00000-0  98364-3 0  9990
2 35367  82.5208 191.0835 0023165  64.4455  60.7500 13.99843161346199

Suivez METEOR 2-17 DEB en temps réel avec AllMySat

Download on the App Store